• In Belarus
  • List of Countries
  • For 7 days
  • Water Temperature
  • Satellite Maps
  • Weather Map
  • Weather Widgets
  • user-avatar
    Login

    Hourly Weather Kozmodemyanovskoe

    Today, 23 April, Monday

    Time Temperature Precipitation Wind Pressure Humidity
    00:00 -2°C° 0 mm 3 mps 744 mmHg 78%
    01:00 -4°C° 0 mm 3 mps 744 mmHg 78%
    02:00 -4°C° 0 mm 4 mps 745 mmHg 79%
    03:00 -4°C° 0 mm 3 mps 745 mmHg 82%
    04:00 -4°C° 0 mm 4 mps 745 mmHg 81%
    05:00 -4°C° 0 mm 4 mps 745 mmHg 80%
    06:00 -4°C° 0 mm 4 mps 746 mmHg 80%
    07:00 -2°C° 0 mm 4 mps 746 mmHg 70%
    08:00 -1°C° 0 mm 5 mps 746 mmHg 61%
    09:00 0°C° 0 mm 5 mps 747 mmHg 51%
    10:00 +1°C° 0 mm 5 mps 747 mmHg 48%
    11:00 +2°C° 0 mm 5 mps 747 mmHg 45%
    12:00 +3°C° 0 mm 5 mps 747 mmHg 42%
    13:00 +3°C° 0 mm 5 mps 747 mmHg 42%
    14:00 +5°C° 0 mm 5 mps 747 mmHg 42%
    15:00 +5°C° 0 mm 5 mps 747 mmHg 42%
    16:00 +5°C° 0 mm 4 mps 747 mmHg 44%
    17:00 +4°C° 0 mm 4 mps 747 mmHg 46%
    18:00 +4°C° 0 mm 4 mps 747 mmHg 48%
    19:00 +3°C° 0 mm 3 mps 747 mmHg 54%
    20:00 +2°C° 0 mm 2 mps 748 mmHg 61%
    21:00 +1°C° 0 mm 2 mps 748 mmHg 67%
    22:00 +1°C° 0 mm 1 mps 748 mmHg 70%
    23:00 0°C° 0 mm 1 mps 748 mmHg 73%

    Tomorrow, 24 April, Tuesday

    Time Temperature Precipitation Wind Pressure Humidity
    00:00 0°C° 0 mm 1 mps 748 mmHg 76%
    01:00 -1°C° 0 mm 1 mps 748 mmHg 77%
    02:00 -1°C° 0 mm 1 mps 748 mmHg 77%
    03:00 -2°C° 0 mm 0 mps 748 mmHg 77%
    04:00 -2°C° 0 mm 0 mps 748 mmHg 75%
    05:00 -1°C° 0 mm 0 mps 748 mmHg 73%
    06:00 -1°C° 0 mm 0 mps 748 mmHg 71%
    07:00 +2°C° 0 mm 1 mps 748 mmHg 64%
    08:00 +3°C° 0 mm 1 mps 748 mmHg 56%
    09:00 +5°C° 0 mm 1 mps 748 mmHg 49%
    10:00 +6°C° 0 mm 1 mps 748 mmHg 46%
    11:00 +8°C° 0 mm 1 mps 748 mmHg 43%
    12:00 +8°C° 0 mm 2 mps 747 mmHg 39%
    13:00 +8°C° 0 mm 2 mps 747 mmHg 39%
    14:00 +9°C° 0 mm 2 mps 746 mmHg 38%
    15:00 +9°C° 0 mm 2 mps 746 mmHg 37%
    16:00 +9°C° 0 mm 2 mps 745 mmHg 41%
    17:00 +9°C° 0 mm 2 mps 745 mmHg 44%
    18:00 +9°C° 0 mm 2 mps 745 mmHg 48%
    19:00 +8°C° 0 mm 2 mps 744 mmHg 53%
    20:00 +7°C° 0 mm 2 mps 744 mmHg 58%
    21:00 +5°C° 0 mm 2 mps 744 mmHg 63%
    22:00 +4°C° 0.1 mm 3 mps 743 mmHg 65%
    23:00 +4°C° 0.1 mm 3 mps 743 mmHg 67%

    Day after tomorrow, 25 April, Wednesday

    Time Temperature Precipitation Wind Pressure Humidity
    00:00 +4°C° 0.1 mm 3 mps 743 mmHg 69%
    01:00 +4°C° 0.2 mm 3 mps 742 mmHg 72%
    02:00 +4°C° 0.2 mm 3 mps 742 mmHg 76%
    03:00 +4°C° 0.2 mm 4 mps 741 mmHg 80%
    04:00 +3°C° 0.3 mm 3 mps 741 mmHg 83%
    05:00 +3°C° 0.3 mm 3 mps 741 mmHg 86%
    06:00 +3°C° 0.3 mm 3 mps 740 mmHg 89%
    07:00 +4°C° 0.1 mm 3 mps 740 mmHg 89%
    08:00 +5°C° 0.1 mm 3 mps 740 mmHg 89%
    09:00 +5°C° 0.1 mm 3 mps 740 mmHg 89%
    10:00 +7°C° 0.4 mm 3 mps 740 mmHg 89%
    11:00 +8°C° 0.4 mm 3 mps 739 mmHg 88%
    12:00 +9°C° 0.4 mm 3 mps 739 mmHg 87%
    13:00 +9°C° 0.7 mm 3 mps 739 mmHg 86%
    14:00 +9°C° 0.7 mm 3 mps 739 mmHg 85%
    15:00 +9°C° 0.7 mm 3 mps 739 mmHg 84%
    16:00 +10°C° 0.3 mm 3 mps 739 mmHg 81%
    17:00 +10°C° 0.3 mm 3 mps 738 mmHg 79%
    18:00 +10°C° 0.3 mm 3 mps 738 mmHg 76%
    19:00 +9°C° 0.2 mm 2 mps 739 mmHg 81%
    20:00 +8°C° 0.2 mm 2 mps 739 mmHg 85%
    21:00 +6°C° 0.2 mm 2 mps 739 mmHg 89%
    22:00 +6°C° 0 mm 2 mps 739 mmHg 91%
    23:00 +5°C° 0 mm 2 mps 739 mmHg 92%

    26 April, Thursday

    Time Temperature Precipitation Wind Pressure Humidity
    00:00 +4°C° 0 mm 3 mps 739 mmHg 93%
    01:00 +4°C° 0 mm 2 mps 739 mmHg 94%
    02:00 +4°C° 0 mm 2 mps 739 mmHg 95%
    03:00 +3°C° 0 mm 2 mps 739 mmHg 95%
    04:00 +3°C° 0 mm 2 mps 738 mmHg 95%
    05:00 +3°C° 0 mm 2 mps 738 mmHg 95%
    06:00 +3°C° 0 mm 2 mps 738 mmHg 95%
    07:00 +5°C° 0 mm 2 mps 738 mmHg 90%
    08:00 +6°C° 0 mm 2 mps 738 mmHg 85%
    09:00 +8°C° 0 mm 2 mps 737 mmHg 80%
    10:00 +9°C° 0 mm 2 mps 737 mmHg 76%
    11:00 +10°C° 0 mm 2 mps 737 mmHg 72%
    12:00 +11°C° 0 mm 3 mps 736 mmHg 68%
    13:00 +11°C° 0.2 mm 3 mps 736 mmHg 69%
    14:00 +11°C° 0.2 mm 3 mps 736 mmHg 70%
    15:00 +11°C° 0.2 mm 3 mps 736 mmHg 72%
    16:00 +11°C° 0.4 mm 4 mps 737 mmHg 74%
    17:00 +10°C° 0.4 mm 4 mps 737 mmHg 77%
    18:00 +10°C° 0.4 mm 4 mps 737 mmHg 80%
    19:00 +8°C° 0.1 mm 4 mps 738 mmHg 82%
    20:00 +7°C° 0.1 mm 4 mps 738 mmHg 85%
    21:00 +6°C° 0.1 mm 4 mps 739 mmHg 88%
    22:00 +5°C° 0 mm 4 mps 740 mmHg 88%
    23:00 +5°C° 0 mm 4 mps 740 mmHg 89%

    27 April, Friday

    Time Temperature Precipitation Wind Pressure Humidity
    00:00 +5°C° 0 mm 4 mps 740 mmHg 90%
    01:00 +4°C° 0 mm 4 mps 741 mmHg 91%
    02:00 +4°C° 0 mm 3 mps 741 mmHg 92%
    03:00 +4°C° 0 mm 3 mps 742 mmHg 93%
    04:00 +3°C° 0 mm 3 mps 742 mmHg 93%
    05:00 +3°C° 0 mm 3 mps 742 mmHg 92%
    06:00 +3°C° 0 mm 3 mps 743 mmHg 92%
    07:00 +5°C° 0 mm 3 mps 743 mmHg 86%
    08:00 +7°C° 0 mm 3 mps 743 mmHg 79%
    09:00 +8°C° 0 mm 4 mps 744 mmHg 72%
    10:00 +10°C° 0 mm 4 mps 744 mmHg 65%
    11:00 +12°C° 0 mm 4 mps 744 mmHg 58%
    12:00 +13°C° 0 mm 4 mps 744 mmHg 51%
    13:00 +13°C° 0 mm 4 mps 744 mmHg 49%
    14:00 +14°C° 0 mm 4 mps 744 mmHg 47%
    15:00 +14°C° 0 mm 3 mps 744 mmHg 45%
    16:00 +14°C° 0 mm 3 mps 744 mmHg 49%
    17:00 +14°C° 0 mm 2 mps 744 mmHg 53%
    18:00 +14°C° 0 mm 2 mps 743 mmHg 57%
    19:00 +12°C° 0.1 mm 2 mps 743 mmHg 63%
    20:00 +10°C° 0.1 mm 2 mps 744 mmHg 69%
    21:00 +9°C° 0.1 mm 2 mps 744 mmHg 76%
    22:00 +8°C° 0.5 mm 2 mps 744 mmHg 80%
    23:00 +8°C° 0.5 mm 2 mps 744 mmHg 85%

    28 April, Saturday

    Time Temperature Precipitation Wind Pressure Humidity
    00:00 +7°C° 0.5 mm 2 mps 744 mmHg 89%
    01:00 +7°C° 1 mm 2 mps 744 mmHg 90%
    02:00 +7°C° 1 mm 2 mps 744 mmHg 92%
    03:00 +6°C° 1 mm 2 mps 744 mmHg 93%
    04:00 +6°C° 0.7 mm 2 mps 744 mmHg 93%
    05:00 +6°C° 0.7 mm 2 mps 745 mmHg 92%
    06:00 +6°C° 0.7 mm 2 mps 745 mmHg 92%
    07:00 +7°C° 0.1 mm 3 mps 746 mmHg 86%
    08:00 +8°C° 0.1 mm 3 mps 746 mmHg 81%
    09:00 +9°C° 0.1 mm 3 mps 747 mmHg 75%
    10:00 +11°C° 0.2 mm 4 mps 747 mmHg 69%
    11:00 +12°C° 0.2 mm 4 mps 747 mmHg 63%
    12:00 +13°C° 0.2 mm 4 mps 748 mmHg 57%
    13:00 +13°C° 0.3 mm 5 mps 748 mmHg 55%
    14:00 +13°C° 0.3 mm 5 mps 749 mmHg 54%
    15:00 +13°C° 0.3 mm 5 mps 749 mmHg 52%
    16:00 +13°C° 0.1 mm 4 mps 749 mmHg 54%
    17:00 +12°C° 0.1 mm 4 mps 749 mmHg 55%
    18:00 +12°C° 0.1 mm 3 mps 750 mmHg 57%
    19:00 +11°C° 0 mm 3 mps 750 mmHg 62%
    20:00 +9°C° 0 mm 3 mps 751 mmHg 68%
    21:00 +8°C° 0 mm 3 mps 751 mmHg 73%
    22:00 +7°C° 0 mm 3 mps 751 mmHg 76%
    23:00 +7°C° 0 mm 2 mps 752 mmHg 79%
    Show more